When you browse on this site, cookies collect data to enhance your experience and personalize the content and advertising you see.
Visit our Privacy Policy to learn more. By continuing to use the site, you agree to this use of cookies and data.
  • In Romania
  • List of Countries
  • For 7 days
  • Water Temperature
  • Satellite Maps
  • Weather Map
  • Weather Widgets
  • user-avatar
    Login

    Hourly Weather San Antonio

    Today, 22 May, Wednesday

    Time Temperature Precipitation Wind Pressure Humidity
    00:00 +25°C° 0 mm 4 mps 736 mmHg 91%
    01:00 +26°C° 0 mm 4 mps 736 mmHg 92%
    02:00 +27°C° 0 mm 5 mps 736 mmHg 93%
    03:00 +27°C° 0.1 mm 5 mps 736 mmHg 92%
    04:00 +27°C° 0.1 mm 5 mps 737 mmHg 91%
    05:00 +27°C° 0.1 mm 5 mps 737 mmHg 90%
    06:00 +27°C° 0.1 mm 5 mps 737 mmHg 87%
    07:00 +27°C° 0.1 mm 5 mps 738 mmHg 85%
    08:00 +28°C° 0.1 mm 6 mps 738 mmHg 82%
    09:00 +29°C° 0 mm 6 mps 739 mmHg 74%
    10:00 +32°C° 0 mm 6 mps 739 mmHg 66%
    11:00 +34°C° 0 mm 7 mps 739 mmHg 57%
    12:00 +35°C° 0 mm 7 mps 738 mmHg 54%
    13:00 +37°C° 0 mm 8 mps 738 mmHg 51%
    14:00 +38°C° 0 mm 8 mps 738 mmHg 48%
    15:00 +37°C° 0 mm 8 mps 737 mmHg 51%
    16:00 +35°C° 0 mm 7 mps 737 mmHg 55%
    17:00 +34°C° 0 mm 7 mps 737 mmHg 59%
    18:00 +32°C° 0 mm 7 mps 738 mmHg 67%
    19:00 +30°C° 0 mm 6 mps 738 mmHg 76%
    20:00 +28°C° 0 mm 6 mps 739 mmHg 84%
    21:00 +28°C° 0.1 mm 6 mps 739 mmHg 84%
    22:00 +28°C° 0.1 mm 6 mps 740 mmHg 83%
    23:00 +28°C° 0.1 mm 7 mps 741 mmHg 82%

    Tomorrow, 23 May, Thursday

    Time Temperature Precipitation Wind Pressure Humidity
    00:00 +28°C° 0.1 mm 6 mps 741 mmHg 83%
    01:00 +27°C° 0.1 mm 6 mps 740 mmHg 84%
    02:00 +27°C° 0.1 mm 6 mps 740 mmHg 85%
    03:00 +27°C° 0.1 mm 6 mps 741 mmHg 85%
    04:00 +27°C° 0.1 mm 6 mps 741 mmHg 84%
    05:00 +27°C° 0.1 mm 5 mps 741 mmHg 84%
    06:00 +27°C° 0.1 mm 6 mps 742 mmHg 82%
    07:00 +28°C° 0.1 mm 6 mps 742 mmHg 79%
    08:00 +28°C° 0.1 mm 7 mps 743 mmHg 76%
    09:00 +29°C° 0 mm 7 mps 743 mmHg 72%
    10:00 +30°C° 0 mm 7 mps 743 mmHg 67%
    11:00 +33°C° 0 mm 7 mps 743 mmHg 62%
    12:00 +34°C° 0 mm 8 mps 742 mmHg 59%
    13:00 +34°C° 0 mm 8 mps 741 mmHg 56%
    14:00 +35°C° 0 mm 8 mps 741 mmHg 53%
    15:00 +35°C° 0 mm 8 mps 741 mmHg 55%
    16:00 +34°C° 0 mm 8 mps 740 mmHg 58%
    17:00 +33°C° 0 mm 8 mps 740 mmHg 61%
    18:00 +32°C° 0 mm 8 mps 741 mmHg 66%
    19:00 +29°C° 0 mm 7 mps 741 mmHg 71%
    20:00 +28°C° 0 mm 7 mps 742 mmHg 76%
    21:00 +28°C° 0 mm 7 mps 742 mmHg 79%
    22:00 +27°C° 0 mm 6 mps 742 mmHg 82%
    23:00 +27°C° 0 mm 6 mps 743 mmHg 85%

    Day after tomorrow, 24 May, Friday

    Time Temperature Precipitation Wind Pressure Humidity
    00:00 +27°C° 0.1 mm 6 mps 742 mmHg 84%
    01:00 +27°C° 0.1 mm 6 mps 742 mmHg 83%
    02:00 +27°C° 0.1 mm 6 mps 741 mmHg 82%
    03:00 +27°C° 0.1 mm 6 mps 741 mmHg 83%
    04:00 +26°C° 0.1 mm 6 mps 742 mmHg 84%
    05:00 +26°C° 0.1 mm 5 mps 742 mmHg 85%
    06:00 +27°C° 0.1 mm 6 mps 742 mmHg 82%
    07:00 +27°C° 0.1 mm 6 mps 743 mmHg 79%
    08:00 +28°C° 0.1 mm 6 mps 744 mmHg 76%
    09:00 +28°C° 0.1 mm 6 mps 744 mmHg 73%
    10:00 +29°C° 0.1 mm 6 mps 744 mmHg 70%
    11:00 +30°C° 0.1 mm 6 mps 743 mmHg 67%
    12:00 +32°C° 0 mm 7 mps 743 mmHg 63%
    13:00 +33°C° 0 mm 7 mps 742 mmHg 59%
    14:00 +34°C° 0 mm 7 mps 742 mmHg 54%
    15:00 +34°C° 0 mm 7 mps 741 mmHg 56%
    16:00 +33°C° 0 mm 7 mps 741 mmHg 58%
    17:00 +32°C° 0 mm 7 mps 741 mmHg 60%
    18:00 +30°C° 0 mm 6 mps 742 mmHg 66%
    19:00 +28°C° 0 mm 6 mps 742 mmHg 73%
    20:00 +27°C° 0 mm 5 mps 742 mmHg 80%
    21:00 +26°C° 0 mm 5 mps 743 mmHg 82%
    22:00 +26°C° 0 mm 5 mps 743 mmHg 85%
    23:00 +26°C° 0 mm 5 mps 743 mmHg 87%

    25 May, Saturday

    Time Temperature Precipitation Wind Pressure Humidity
    00:00 +26°C° 0.1 mm 5 mps 743 mmHg 86%
    01:00 +26°C° 0.1 mm 5 mps 743 mmHg 85%
    02:00 +26°C° 0.1 mm 4 mps 742 mmHg 83%
    03:00 +26°C° 0.1 mm 4 mps 742 mmHg 86%
    04:00 +26°C° 0.1 mm 4 mps 743 mmHg 89%
    05:00 +25°C° 0.1 mm 4 mps 743 mmHg 92%
    06:00 +26°C° 0.1 mm 4 mps 743 mmHg 89%
    07:00 +27°C° 0.1 mm 5 mps 744 mmHg 85%
    08:00 +27°C° 0.1 mm 6 mps 744 mmHg 81%
    09:00 +28°C° 0.1 mm 5 mps 744 mmHg 77%
    10:00 +29°C° 0.1 mm 5 mps 744 mmHg 72%
    11:00 +30°C° 0.1 mm 5 mps 744 mmHg 67%
    12:00 +32°C° 0 mm 5 mps 744 mmHg 62%
    13:00 +33°C° 0 mm 6 mps 743 mmHg 57%
    14:00 +35°C° 0 mm 6 mps 743 mmHg 51%
    15:00 +34°C° 0 mm 6 mps 743 mmHg 53%
    16:00 +33°C° 0 mm 6 mps 742 mmHg 55%
    17:00 +33°C° 0 mm 6 mps 742 mmHg 57%
    18:00 +30°C° 0 mm 6 mps 743 mmHg 64%
    19:00 +29°C° 0 mm 6 mps 743 mmHg 71%
    20:00 +27°C° 0 mm 6 mps 743 mmHg 78%
    21:00 +27°C° 0 mm 5 mps 744 mmHg 82%
    22:00 +26°C° 0 mm 5 mps 744 mmHg 85%
    23:00 +26°C° 0 mm 4 mps 744 mmHg 89%

    26 May, Sunday

    Time Temperature Precipitation Wind Pressure Humidity
    00:00 +25°C° 0.1 mm 4 mps 744 mmHg 90%
    01:00 +25°C° 0.1 mm 4 mps 744 mmHg 92%
    02:00 +25°C° 0.1 mm 3 mps 743 mmHg 93%
    03:00 +25°C° 0.1 mm 3 mps 744 mmHg 93%
    04:00 +25°C° 0.1 mm 3 mps 744 mmHg 94%
    05:00 +25°C° 0.1 mm 3 mps 744 mmHg 94%
    06:00 +26°C° 0.1 mm 4 mps 744 mmHg 87%
    07:00 +27°C° 0.1 mm 5 mps 745 mmHg 81%
    08:00 +29°C° 0.1 mm 5 mps 745 mmHg 74%
    09:00 +30°C° 0 mm 5 mps 745 mmHg 69%
    10:00 +32°C° 0 mm 5 mps 745 mmHg 64%
    11:00 +33°C° 0 mm 5 mps 745 mmHg 60%
    12:00 +34°C° 0 mm 5 mps 745 mmHg 56%
    13:00 +34°C° 0 mm 5 mps 744 mmHg 52%
    14:00 +35°C° 0 mm 5 mps 744 mmHg 48%
    15:00 +35°C° 0 mm 6 mps 744 mmHg 50%
    16:00 +34°C° 0 mm 6 mps 743 mmHg 51%
    17:00 +33°C° 0 mm 6 mps 743 mmHg 53%
    18:00 +30°C° 0 mm 6 mps 743 mmHg 61%
    19:00 +28°C° 0 mm 6 mps 743 mmHg 68%
    20:00 +27°C° 0 mm 6 mps 744 mmHg 76%
    21:00 +26°C° 0 mm 5 mps 744 mmHg 81%
    22:00 +25°C° 0 mm 4 mps 744 mmHg 86%
    23:00 +24°C° 0 mm 3 mps 744 mmHg 91%

    27 May, Monday

    Time Temperature Precipitation Wind Pressure Humidity
    00:00 +24°C° 0 mm 3 mps 744 mmHg 90%
    01:00 +25°C° 0 mm 4 mps 743 mmHg 90%
    02:00 +25°C° 0 mm 4 mps 743 mmHg 90%
    03:00 +25°C° 0.1 mm 4 mps 743 mmHg 89%
    04:00 +25°C° 0.1 mm 4 mps 743 mmHg 89%
    05:00 +25°C° 0.1 mm 3 mps 743 mmHg 89%
    06:00 +26°C° 0.1 mm 4 mps 743 mmHg 84%
    07:00 +27°C° 0.1 mm 5 mps 743 mmHg 79%
    08:00 +28°C° 0.1 mm 6 mps 743 mmHg 74%
    09:00 +30°C° 0 mm 6 mps 743 mmHg 68%
    10:00 +32°C° 0 mm 6 mps 743 mmHg 62%
    11:00 +33°C° 0 mm 6 mps 742 mmHg 56%
    12:00 +34°C° 0 mm 6 mps 742 mmHg 54%
    13:00 +35°C° 0 mm 7 mps 741 mmHg 52%
    14:00 +35°C° 0 mm 7 mps 740 mmHg 50%
    15:00 +34°C° 0 mm 7 mps 740 mmHg 53%
    16:00 +34°C° 0 mm 7 mps 739 mmHg 57%
    17:00 +33°C° 0 mm 7 mps 739 mmHg 61%
    18:00 +30°C° 0 mm 7 mps 739 mmHg 66%
    19:00 +29°C° 0 mm 7 mps 739 mmHg 71%
    20:00 +28°C° 0 mm 6 mps 739 mmHg 76%
    21:00 +27°C° 0 mm 6 mps 739 mmHg 80%
    22:00 +27°C° 0 mm 6 mps 739 mmHg 83%
    23:00 +26°C° 0 mm 6 mps 739 mmHg 86%
    Show more